This demonstration page uses our WeatherBlox Daily Observations layout. Learn more.

Left ArrowRight Arrow

39.51506, -84.39828

Hourly Observations for June 23, 2017

Temp ( °F °C ) Dew Point ( °F °C ) Humidity (%) Winds ( mph kmh ) Pressure ( in mb ) Visibility ( mi km ) Precip ( " mm )
12:15 am 00:15 Cloudy 74 23.6 69 20.3 82 82 S 5 7 29.85 1011 10 16 0.00 0.00
12:35 am 00:35 Cloudy with Drizzle 74 23.6 69 20.5 83 83 SSE 5 7 29.85 1011 7 11 0.00 0.00
12:55 am 00:55 Cloudy with Rain 74 23.6 69 20.7 84 84 SSE 3 6 29.85 1011 5 8 0.00 0.00
1:15 am 01:15 Cloudy with Rain 73 22.5 68 19.8 85 85 SSE 3 6 29.83 1010 7 11 0.00 0.00
1:35 am 01:35 Cloudy 74 23.6 70 20.9 85 85 S 5 7 29.83 1010 10 16 0.00 0.00
1:55 am 01:55 Cloudy 74 23.6 70 20.9 85 85 SSW 7 11 29.83 1010 10 16 0.00 0.00
2:15 am 02:15 Cloudy 74 23.6 70 21 85 85 S 6 9 29.83 1010 10 16 0.00 0.00
2:35 am 02:35 Cloudy 74 23.6 70 21 85 85 S 7 11 29.83 1010 10 16 0.00 0.00
2:55 am 02:55 Cloudy 74 23.6 70 21 85 85 S 5 7 29.80 1009 10 16 0.00 0.00
3:15 am 03:15 Cloudy 74 23.6 70 21 85 85 SSW 3 6 29.80 1009 10 16 0.00 0.00
3:35 am 03:35 Cloudy 74 23.6 70 21 85 85 SSW 3 6 29.80 1009 10 16 0.00 0.00
3:55 am 03:55 Cloudy 74 23.6 70 21 85 85 Calm 29.80 1009 10 16 0.00 0.00
4:15 am 04:15 Cloudy with Drizzle 74 23.6 70 21 85 85 SW 3 6 29.80 1009 4 6 0.00 0.00
4:35 am 04:35 Cloudy 74 23.6 70 21 85 85 SW 10 17 29.80 1009 10 16 0.00 0.00
4:55 am 04:55 Cloudy 74 23.6 70 21 85 85 SSW 9 15 29.77 1008 10 16 0.00 0.00
5:15 am 05:15 Cloudy 74 23.6 70 20.9 85 85 SSW 9 15 29.77 1008 10 16 0.00 0.00
5:35 am 05:35 Cloudy 74 23.6 70 21 85 85 SSW 10 17 29.77 1008 10 16 0.00 0.00
5:55 am 05:55 Cloudy with Light Rain 74 23.6 70 21 85 85 SSW 10 17 29.77 1008 10 16 0.00 0.00
6:15 am 06:15 Cloudy 75 23.7 70 21 85 85 SSW 9 15 29.77 1008 10 16 0.00 0.00
6:35 am 06:35 Cloudy 76 24.4 71 21.5 84 84 SSW 12 19 29.77 1008 10 16 0.00 0.00
6:55 am 06:55 Cloudy 76 24.4 71 21.5 84 84 SSW 10 17 29.77 1008 10 16 0.00 0.00
7:15 am 07:15 Cloudy with Rain 76 24.5 71 21.7 84 84 SW 14 22 29.77 1008 7 11 0.00 0.00
7:35 am 07:35 Cloudy with Drizzle 75 24 70 21.3 85 85 SSW 10 17 29.77 1008 7 11 0.00 0.00
7:55 am 07:55 Cloudy 77 25 72 22.3 85 85 SSW 13 20 29.77 1008 10 16 0.00 0.00
8:15 am 08:15 Cloudy with Light Rain 76 24.5 71 21.6 84 84 SSW 12 19 29.77 1008 5 8 0.00 0.00
8:35 am 08:35 Cloudy with Rain 77 25.1 72 22.3 85 85 SSW 14 22 29.77 1008 7 11 0.00 0.00
8:55 am 08:55 Cloudy with Heavy Rain 75 23.9 70 21.3 85 85 SSW 16 26 29.77 1008 3 4 0.00 0.00
9:15 am 09:15 Cloudy with Light Rain 74 23.6 70 21 85 85 SSW 9 15 29.74 1007 3 4 0.00 0.00
9:35 am 09:35 Cloudy with Rain 75 24.1 71 21.5 85 85 SSW 13 20 29.77 1008 7 11 0.00 0.00
9:55 am 09:55 Cloudy with Drizzle 77 25.1 73 22.5 86 86 SW 9 15 29.77 1008 7 11 0.00 0.00
10:15 am 10:15 Cloudy 77 25.1 73 22.5 86 86 SSW 12 19 29.74 1007 10 16 0.00 0.00
10:35 am 10:35 Cloudy 77 25.1 72 22.3 85 85 SSW 12 19 29.74 1007 10 16 0.00 0.00
10:55 am 10:55 Cloudy with Light Rain 77 25.1 72 22.3 85 85 SSW 16 26 29.74 1007 5 8 0.00 0.00
11:15 am 11:15 Cloudy with Rain 77 25.1 73 22.5 86 86 SSW 10 17 29.74 1007 4 6 0.00 0.00
11:35 am 11:35 Cloudy with Light Rain 77 25.1 73 22.5 86 86 SSW 12 19 29.74 1007 5 8 0.00 0.00
11:55 am 11:55 Cloudy with Light Rain 76 24.6 71 21.9 85 85 SW 17 28 29.74 1007 3 5 0.00 0.00
12:15 pm 12:15 Cloudy with Rain 77 25.1 73 22.5 86 86 SW 14 22 29.74 1007 7 11 0.00 0.00
12:35 pm 12:35 Cloudy with Drizzle 77 25.1 72 22.1 83 83 SW 13 20 29.74 1007 10 16 0.00 0.00
12:55 pm 12:55 Cloudy 77 25.1 72 22.3 85 85 SW 10 17 29.74 1007 7 11 0.00 0.00
1:15 pm 13:15 Cloudy 77 25.1 72 22 83 83 SW 14 22 29.74 1007 10 16 0.00 0.00
1:35 pm 13:35 Cloudy 77 25.1 71 21.7 81 81 SW 10 17 29.74 1007 10 16 0.00 0.00
1:55 pm 13:55 Cloudy with Light Rain 77 25.1 71 21.6 81 81 WSW 10 17 29.74 1007 10 16 0.00 0.00
2:15 pm 14:15 Cloudy with Light Rain 77 25.1 71 21.7 81 81 WSW 10 17 29.74 1007 7 11 0.00 0.00
2:35 pm 14:35 Cloudy with Light Rain 77 25.1 72 22.1 83 83 WSW 10 17 29.74 1007 7 11 0.00 0.00
2:55 pm 14:55 Cloudy with Heavy Rain 76 24.3 70 21 82 82 NNW 12 19 29.77 1008 10 16 0.00 0.00
3:15 pm 15:15 Cloudy with Rain 71 21.6 66 18.9 85 85 WSW 5 7 29.77 1008 3 5 0.00 0.00
3:35 pm 15:35 Cloudy with Rain 69 20.8 65 18.1 85 85 SW 3 6 29.77 1008 3 4 0.00 0.00
3:55 pm 15:55 Cloudy with Rain 69 20.8 65 18.2 85 85 S 3 6 29.74 1007 5 8 0.00 0.00
4:15 pm 16:15 Cloudy with Light Rain 69 20.8 65 18.2 85 85 SSE 7 11 29.74 1007 7 11 0.00 0.00
4:35 pm 16:35 Cloudy with Rain 69 20.8 65 18.2 85 85 SSE 6 9 29.71 1006 7 11 0.00 0.00
4:55 pm 16:55 Cloudy with Rain 69 20.8 65 18.2 85 85 Calm 29.71 1006 5 8 0.00 0.00
5:15 pm 17:15 Cloudy with Rain 69 20.8 65 18.3 86 86 Calm 29.71 1006 5 8 0.00 0.00
5:35 pm 17:35 Cloudy with Light Rain 69 20.8 65 18.3 86 86 NE 3 6 29.71 1006 7 11 0.00 0.00
5:55 pm 17:55 Cloudy with Drizzle 69 20.8 65 18.3 86 86 Calm 29.71 1006 10 16 0.00 0.00
6:15 pm 18:15 Cloudy with Rain 69 20.8 65 18.2 85 85 Calm 29.71 1006 10 16 0.00 0.00
6:35 pm 18:35 Cloudy with Light Rain 69 20.8 65 18.3 86 86 Calm 29.71 1006 10 16 0.00 0.00
6:55 pm 18:55 Mostly Cloudy 69 20.8 65 18.3 86 86 SE 3 6 29.71 1006 10 16 0.00 0.00
7:15 pm 19:15 Mostly Cloudy 69 20.8 65 18.3 86 86 SE 3 6 29.71 1006 10 16 0.00 0.00
7:35 pm 19:35 Mostly Cloudy with Light Rain 69 20.8 65 18.2 85 85 Calm 29.74 1007 10 16 0.00 0.00
7:55 pm 19:55 Cloudy with Drizzle 69 20.8 65 18.3 86 86 Calm 29.71 1006 10 16 0.00 0.00
8:15 pm 20:15 Cloudy 69 20.8 65 18.3 86 86 Calm 29.74 1007 10 16 0.00 0.00
8:35 pm 20:35 Cloudy 69 20.8 65 18.5 87 87 Calm 29.74 1007 10 16 0.00 0.00
8:55 pm 20:55 Cloudy 69 20.8 65 18.5 87 87 Calm 29.74 1007 10 16 0.00 0.00
9:15 pm 21:15 Cloudy 69 20.8 65 18.4 86 86 Calm 29.74 1007 10 16 0.00 0.00
9:35 pm 21:35 Cloudy 69 20.8 65 18.4 86 86 Calm 29.74 1007 10 16 0.00 0.00
9:55 pm 21:55 Cloudy 69 20.8 65 18.5 87 87 WSW 3 6 29.77 1008 10 16 0.00 0.00
10:15 pm 22:15 Cloudy 69 20.8 65 18.3 86 86 WSW 3 6 29.80 1009 10 16 0.00 0.00
10:35 pm 22:35 Partly Cloudy 69 20.8 65 18.3 86 86 Calm 29.80 1009 10 16 0.00 0.00
10:55 pm 22:55 Clear 69 20.8 65 18.3 86 86 W 5 7 29.83 1010 10 16 0.00 0.00
11:15 pm 23:15 Clear 69 20.8 65 18.3 86 86 W 3 6 29.83 1010 10 16 0.00 0.00
11:35 pm 23:35 Clear 69 20.8 65 18.2 85 85 Calm 29.83 1010 10 16 0.00 0.00
11:55 pm 23:55 Clear 69 20.8 65 18.4 86 86 SW 3 6 29.83 1010 10 16 0.00 0.00

Powered by AerisWeather